Flag for Germany Weather past 2 weeks in Kamen, North Rhine-Westphalia, Germany

Now
41 °F

Fog.


Feels Like: 41 °F
Forecast: 47 / 59 °F
Wind: 2 mph from Southeast

Location: Muenster / Osnabrueck

Current Time: May 29, 2015 at 5:02:44 AM

Latest Report: May 29, 2015 at 4:20 AM


Visibility: N/A

Pressure: 29.92 "Hg

Humidity: 100%

Dew point: 41 °F

Location of KamenLocation

Historic Weather in Kamen — Graph

°F

Kamen temperature yesterday

Maximum temperature yesterday: 63 °F (at 1:50 PM)
Minimum temperature yesterday: 46 °F (at 11:20 PM)
Average temperature yesterday: 57 °F

Past Weeks' High & Low Weather Summary

 TemperatureHumidityPressure
High68 °F (May 22, 4:50 PM)100% (May 16, 4:50 AM)30.33 "Hg (May 16, 4:50 AM)
Low37 °F (May 16, 5:20 AM)38% (May 22, 4:50 PM)29.59 "Hg (May 18, 7:20 PM)
Average53 °F71%30.05 "Hg
* Reported May 14 4:20 AM — May 29 4:20 AM, Kamen, Weather by CustomWeather, © 2015

Note: Actual official high and low records may vary slightly from our data, if they occured in-between our weather recording intervals... More about our weather records

Advertising

Kamen weather history for previous 24 hours

 ConditionsComfort  
Time TempWeatherWind HumidityBarometerVisibility
4:20 AM
Fri, May 29
41 °FFog.2 mph100%29.92 "HgN/A
3:20 AM41 °FFog.1 mph100%29.92 "HgN/A
2:50 AM43 °FFog.1 mph100%29.95 "HgN/A
2:20 AM43 °FClear.2 mph100%29.95 "Hg10 mi
1:50 AM43 °FClear.1 mph100%29.95 "Hg10 mi
1:20 AM43 °FClear.1 mph93%29.95 "Hg10 mi
11:50 PM
Thu, May 28
46 °FClear.1 mph87%29.95 "Hg10 mi
11:20 PM46 °FClear.1 mph87%29.95 "Hg10 mi
10:50 PM50 °FClear.2 mph76%29.95 "Hg10 mi
10:20 PM52 °FSunny.3 mph72%29.95 "Hg10 mi
9:50 PM52 °FSunny.6 mph67%29.95 "Hg10 mi
9:20 PM55 °FSunny.8 mph63%29.92 "Hg10 mi
8:50 PM55 °FSunny.10 mph63%29.92 "Hg10 mi
8:20 PM57 °FPartly sunny.9 mph63%29.92 "HgN/A
7:50 PM57 °FScattered clouds.7 mph72%29.92 "HgN/A
7:20 PM57 °FScattered clouds.7 mph67%29.92 "HgN/A
6:50 PM59 °FPartly sunny.12 mph63%29.92 "HgN/A
6:20 PM61 °FBroken clouds.14 mph63%29.89 "HgN/A
5:50 PM57 °FBroken clouds.7 mph77%29.89 "HgN/A
5:20 PM59 °FScattered clouds.12 mph72%29.89 "HgN/A
4:50 PM59 °FPassing clouds.9 mph77%29.89 "HgN/A
4:20 PM55 °FSprinkles. Scattered clouds.15 mph88%29.89 "HgN/A
3:50 PM59 °FScattered clouds.10 mph88%29.89 "HgN/A
3:20 PM55 °FSprinkles. Broken clouds.12 mph94%29.89 "HgN/A
2:50 PM59 °FThunderstorms. Broken clouds.14 mph82%29.89 "Hg4 mi
2:20 PM57 °FSprinkles. Broken clouds.12 mph88%29.89 "HgN/A
1:50 PM63 °FSprinkles. Broken clouds.15 mph59%29.89 "HgN/A
1:20 PM61 °FBroken clouds.16 mph63%29.89 "HgN/A
12:50 PM61 °FBroken clouds.15 mph68%29.89 "HgN/A
12:20 PM61 °FPartly sunny.17 mph63%29.89 "HgN/A
11:50 AM59 °FPartly sunny.15 mph68%29.89 "HgN/A
11:20 AM61 °FPartly sunny.16 mph63%29.89 "HgN/A
10:50 AM61 °FBroken clouds.16 mph59%29.89 "HgN/A
10:20 AM59 °FPartly sunny.17 mph63%29.89 "HgN/A
9:50 AM59 °FBroken clouds.13 mph63%29.89 "HgN/A
9:20 AM59 °FBroken clouds.13 mph63%29.89 "HgN/A
8:50 AM59 °FSunny.13 mph63%29.92 "Hg10 mi
8:20 AM57 °FSunny.13 mph67%29.89 "Hg10 mi
7:50 AM57 °FSunny.12 mph63%29.92 "Hg10 mi
7:20 AM57 °FSunny.9 mph67%29.92 "Hg10 mi
6:50 AM55 °FSunny.12 mph63%29.92 "Hg10 mi
6:20 AM55 °FSunny.10 mph63%29.92 "Hg10 mi
5:20 AM55 °FClear.9 mph63%29.92 "Hg10 mi
Weather by CustomWeather, © 2015

See weather overviewHow to use our weather pages